When you browse on this site, cookies collect data to enhance your experience and personalize the content and advertising you see.
Visit our Privacy Policy to learn more. By continuing to use the site, you agree to this use of cookies and data.

Hourly Weather Vidin

Today, 3 August, Monday

Time Temperature Precipitation Wind Pressure Humidity
00:00 +21°C° 0 mm 2 mps 757 mmHg 62%
01:00 +21°C° 0 mm 2 mps 757 mmHg 62%
02:00 +21°C° 0 mm 1 mps 757 mmHg 66%
03:00 +21°C° 0 mm 1 mps 757 mmHg 66%
04:00 +19°C° 0 mm 2 mps 757 mmHg 66%
05:00 +19°C° 0 mm 2 mps 756 mmHg 65%
06:00 +21°C° 0 mm 2 mps 756 mmHg 61%
07:00 +23°C° 0 mm 2 mps 757 mmHg 56%
08:00 +25°C° 0 mm 2 mps 757 mmHg 55%
09:00 +27°C° 0 mm 3 mps 756 mmHg 51%
10:00 +30°C° 0 mm 3 mps 756 mmHg 46%
11:00 +33°C° 0 mm 4 mps 756 mmHg 42%
12:00 +34°C° 0 mm 4 mps 755 mmHg 37%
13:00 +35°C° 0 mm 3 mps 755 mmHg 33%
14:00 +37°C° 0 mm 3 mps 754 mmHg 28%
15:00 +37°C° 0 mm 3 mps 754 mmHg 27%
16:00 +37°C° 0 mm 3 mps 753 mmHg 26%
17:00 +37°C° 0 mm 3 mps 753 mmHg 25%
18:00 +35°C° 0 mm 3 mps 753 mmHg 28%
19:00 +33°C° 0 mm 4 mps 753 mmHg 31%
20:00 +30°C° 0 mm 4 mps 753 mmHg 34%
21:00 +28°C° 0 mm 3 mps 753 mmHg 35%
22:00 +27°C° 0 mm 3 mps 753 mmHg 35%
23:00 +26°C° 0 mm 2 mps 753 mmHg 36%

Tomorrow, 4 August, Tuesday

Time Temperature Precipitation Wind Pressure Humidity
00:00 +25°C° 0 mm 2 mps 754 mmHg 40%
01:00 +24°C° 0 mm 3 mps 754 mmHg 45%
02:00 +22°C° 0 mm 3 mps 754 mmHg 49%
03:00 +21°C° 0 mm 3 mps 754 mmHg 53%
04:00 +20°C° 0 mm 3 mps 754 mmHg 56%
05:00 +20°C° 0 mm 3 mps 754 mmHg 60%
06:00 +21°C° 0 mm 3 mps 754 mmHg 57%
07:00 +22°C° 0 mm 3 mps 754 mmHg 55%
08:00 +24°C° 0 mm 3 mps 754 mmHg 53%
09:00 +27°C° 0 mm 3 mps 754 mmHg 47%
10:00 +29°C° 0 mm 4 mps 754 mmHg 41%
11:00 +32°C° 0 mm 4 mps 754 mmHg 36%
12:00 +34°C° 0 mm 4 mps 754 mmHg 33%
13:00 +35°C° 0 mm 4 mps 753 mmHg 30%
14:00 +37°C° 0 mm 4 mps 753 mmHg 27%
15:00 +37°C° 0 mm 4 mps 753 mmHg 26%
16:00 +37°C° 0 mm 4 mps 752 mmHg 26%
17:00 +38°C° 0 mm 4 mps 752 mmHg 25%
18:00 +35°C° 0 mm 4 mps 752 mmHg 29%
19:00 +33°C° 0 mm 4 mps 752 mmHg 32%
20:00 +30°C° 0 mm 4 mps 752 mmHg 36%
21:00 +28°C° 0 mm 3 mps 753 mmHg 38%
22:00 +27°C° 0 mm 3 mps 753 mmHg 40%
23:00 +26°C° 0 mm 3 mps 753 mmHg 42%

Day after tomorrow, 5 August, Wednesday

Time Temperature Precipitation Wind Pressure Humidity
00:00 +25°C° 0.1 mm 3 mps 753 mmHg 46%
01:00 +24°C° 0.1 mm 3 mps 753 mmHg 49%
02:00 +22°C° 0.1 mm 3 mps 754 mmHg 53%
03:00 +21°C° 0.3 mm 3 mps 754 mmHg 60%
04:00 +20°C° 0.3 mm 3 mps 754 mmHg 67%
05:00 +20°C° 0.3 mm 3 mps 754 mmHg 74%
06:00 +21°C° 0.2 mm 3 mps 754 mmHg 71%
07:00 +22°C° 0.2 mm 3 mps 754 mmHg 68%
08:00 +23°C° 0.2 mm 4 mps 755 mmHg 64%
09:00 +26°C° 0.1 mm 4 mps 755 mmHg 56%
10:00 +28°C° 0.1 mm 4 mps 755 mmHg 47%
11:00 +30°C° 0.1 mm 5 mps 755 mmHg 39%
12:00 +33°C° 0 mm 5 mps 755 mmHg 35%
13:00 +34°C° 0 mm 6 mps 755 mmHg 31%
14:00 +35°C° 0 mm 6 mps 754 mmHg 27%
15:00 +35°C° 0 mm 6 mps 754 mmHg 27%
16:00 +35°C° 0 mm 6 mps 754 mmHg 26%
17:00 +35°C° 0 mm 6 mps 754 mmHg 25%
18:00 +33°C° 0 mm 5 mps 754 mmHg 27%
19:00 +30°C° 0 mm 4 mps 754 mmHg 29%
20:00 +29°C° 0 mm 3 mps 754 mmHg 31%
21:00 +28°C° 0 mm 3 mps 755 mmHg 36%
22:00 +27°C° 0 mm 4 mps 755 mmHg 40%
23:00 +26°C° 0 mm 4 mps 756 mmHg 45%

6 August, Thursday

Time Temperature Precipitation Wind Pressure Humidity
00:00 +25°C° 0 mm 3 mps 756 mmHg 52%
01:00 +24°C° 0 mm 3 mps 756 mmHg 59%
02:00 +23°C° 0 mm 2 mps 756 mmHg 66%
03:00 +21°C° 0 mm 2 mps 757 mmHg 69%
04:00 +20°C° 0 mm 2 mps 757 mmHg 71%
05:00 +20°C° 0 mm 2 mps 757 mmHg 73%
06:00 +21°C° 0 mm 2 mps 757 mmHg 67%
07:00 +22°C° 0 mm 3 mps 757 mmHg 62%
08:00 +25°C° 0 mm 4 mps 758 mmHg 57%
09:00 +26°C° 0 mm 4 mps 758 mmHg 51%
10:00 +28°C° 0 mm 5 mps 758 mmHg 45%
11:00 +30°C° 0 mm 5 mps 758 mmHg 39%
12:00 +32°C° 0 mm 5 mps 758 mmHg 35%
13:00 +33°C° 0 mm 5 mps 757 mmHg 31%
14:00 +34°C° 0 mm 5 mps 757 mmHg 26%
15:00 +34°C° 0 mm 5 mps 757 mmHg 26%
16:00 +34°C° 0 mm 5 mps 757 mmHg 25%
17:00 +35°C° 0 mm 5 mps 756 mmHg 24%
18:00 +33°C° 0 mm 5 mps 757 mmHg 28%
19:00 +30°C° 0 mm 4 mps 757 mmHg 32%
20:00 +29°C° 0 mm 3 mps 757 mmHg 35%
21:00 +27°C° 0.7 mm 2 mps 757 mmHg 46%
22:00 +26°C° 0.7 mm 2 mps 757 mmHg 57%
23:00 +24°C° 0.7 mm 1 mps 758 mmHg 68%

7 August, Friday

Time Temperature Precipitation Wind Pressure Humidity
00:00 +23°C° 0.3 mm 2 mps 758 mmHg 71%
01:00 +23°C° 0.3 mm 2 mps 758 mmHg 74%
02:00 +21°C° 0.3 mm 2 mps 758 mmHg 77%
03:00 +21°C° 0 mm 2 mps 758 mmHg 78%
04:00 +20°C° 0 mm 2 mps 758 mmHg 80%
05:00 +21°C° 0 mm 1 mps 759 mmHg 81%
06:00 +22°C° 0.1 mm 1 mps 759 mmHg 75%
07:00 +24°C° 0.1 mm 1 mps 759 mmHg 70%
08:00 +25°C° 0.1 mm 1 mps 759 mmHg 64%
09:00 +27°C° 0.1 mm 2 mps 759 mmHg 57%
10:00 +29°C° 0.1 mm 3 mps 759 mmHg 50%
11:00 +32°C° 0.1 mm 4 mps 759 mmHg 43%
12:00 +33°C° 0 mm 4 mps 759 mmHg 41%
13:00 +33°C° 0 mm 4 mps 758 mmHg 39%
14:00 +34°C° 0 mm 4 mps 758 mmHg 37%
15:00 +33°C° 0.1 mm 5 mps 758 mmHg 38%
16:00 +33°C° 0.1 mm 5 mps 758 mmHg 39%
17:00 +33°C° 0.1 mm 6 mps 757 mmHg 41%
18:00 +30°C° 0.1 mm 5 mps 758 mmHg 48%
19:00 +28°C° 0.1 mm 3 mps 758 mmHg 56%
20:00 +25°C° 0.1 mm 2 mps 758 mmHg 64%
21:00 +25°C° 0 mm 2 mps 758 mmHg 65%
22:00 +25°C° 0 mm 2 mps 758 mmHg 66%
23:00 +24°C° 0 mm 2 mps 759 mmHg 66%

8 August, Saturday

Time Temperature Precipitation Wind Pressure Humidity
00:00 +24°C° 0 mm 2 mps 759 mmHg 66%
01:00 +24°C° 0 mm 2 mps 759 mmHg 66%
02:00 +23°C° 0 mm 2 mps 759 mmHg 66%
03:00 +23°C° 0 mm 1 mps 758 mmHg 67%
04:00 +22°C° 0 mm 1 mps 758 mmHg 69%
05:00 +22°C° 0 mm 1 mps 758 mmHg 71%
06:00 +23°C° 0 mm 1 mps 758 mmHg 64%
07:00 +25°C° 0 mm 1 mps 758 mmHg 58%
08:00 +27°C° 0 mm 1 mps 758 mmHg 52%
09:00 +29°C° 0 mm 2 mps 758 mmHg 46%
10:00 +31°C° 0 mm 3 mps 758 mmHg 40%
11:00 +34°C° 0 mm 3 mps 758 mmHg 35%
12:00 +34°C° 0 mm 3 mps 758 mmHg 33%
13:00 +34°C° 0 mm 3 mps 757 mmHg 32%
14:00 +35°C° 0 mm 3 mps 757 mmHg 30%
15:00 +35°C° 0 mm 3 mps 756 mmHg 31%
16:00 +35°C° 0 mm 2 mps 756 mmHg 31%
17:00 +34°C° 0 mm 2 mps 756 mmHg 31%
18:00 +32°C° 0 mm 2 mps 756 mmHg 34%
19:00 +30°C° 0 mm 2 mps 756 mmHg 38%
20:00 +28°C° 0 mm 2 mps 756 mmHg 41%
21:00 +28°C° 0 mm 2 mps 756 mmHg 44%
22:00 +27°C° 0 mm 2 mps 756 mmHg 47%
23:00 +27°C° 0 mm 2 mps 757 mmHg 50%
Show more